Regional Weather Roundup
Issued by NWS

Home | Current Version | Previous Version | Text Only | Print | Product List | Glossary On
Versions: 1 2 3 4 5 6 7 8 9 10 11 12 13 14 15 16 17 18 19 20 21 22 23 24 25 26 27 28 29 30 31 32 33 34 35 36 37 38 39 40 41 42 43 44 45 46 47 48 49 50
000
ASUS43 KMPX 282210
RWRMN
WEATHER ROUNDUP FOR MINNESOTA
NATIONAL WEATHER SERVICE TWIN CITIES/CHANHASSEN MN
500 PM CDT THU JUL 28 2016


NOTE: "FAIR" INDICATES FEW OR NO CLOUDS BELOW 12,000 FEET WITH NO
SIGNIFICANT WEATHER AND/OR OBSTRUCTIONS TO VISIBILITY. N/A MEANS
CURRENT SKY AND/OR WEATHER CONDITIONS ARE NOT AVAILABLE.

MNZ060>063-068>070-282300-
   Twin Cities Metro

CITY           SKY/WX    TMP DP  RH WIND       PRES   REMARKS
TWIN CITIES    CLOUDY    76  57  51 NE14      30.01F
ST PAUL        CLOUDY    75  58  55 N12       30.01F
CRYSTAL        MOSUNNY   76  56  49 N13G21    30.00F
BLAINE         PTSUNNY   75  57  53 N14       30.02F
LAKEVILLE      CLOUDY    72  61  68 N8        30.02R
EDEN PRAIRIE   PTSUNNY   77  57  50 N10       30.00S
LAKEVILLE      CLOUDY    72  61  68 N8        30.02R
SOUTH ST PAUL  CLOUDY    76  58  54 N9        30.00S
LAKE ELMO      FAIR      73  61  64 CALM      30.02S
$$
MNZ001>005-007-008-013>017-022>024-027-028-282300-
   Northwest Minnesota

CITY           SKY/WX    TMP DP  RH WIND       PRES   REMARKS
BEMIDJI        MOSUNNY   75  55  50 N8G16     30.08F
HALLOCK        SUNNY     73  54  49 N7        30.10F
ROSEAU         SUNNY     73  55  53 CALM      30.11S
WARROAD        SUNNY     72  57  60 E5        30.12S
CROOKSTON      SUNNY     75  57  53 N10G16    30.10S
FOSSTON        SUNNY     77  59  53 N7        30.09F
DETROIT LAKES  MOSUNNY   77  59  53 N6        30.08S
MOORHEAD       MOSUNNY   79  61  53 N9        30.06F
PARK RAPIDS    SUNNY     79  52  38 VRB5      30.06F
MAHNOMEN       MOCLDY    78  59  51 N9        30.07F
$$
MNZ006-009>011-018-025>026-282300-
   North Central Minnesota

CITY           SKY/WX    TMP DP  RH WIND       PRES   REMARKS
BAUDETTE       SUNNY     75  57  53 N8G17     30.10S
FLAG ISLAND    SUNNY     72  52  49 CALM      30.10F
INTL FALLS     SUNNY     76  53  44 NE8       30.08F
WASKISH        SUNNY     77  55  47 W7        30.08F
BIG FORK       SUNNY     79  54  41 W3        30.07F
LONGVILLE      SUNNY     77  52  41 N5        30.07S
GRAND RAPIDS   PTSUNNY   74  58  57 N6        30.08F
CRANE LAKE     SUNNY     75  50  41 NW2       30.09S
ORR            CLOUDY    77  50  38 CALM      30.05F
COOK           MOSUNNY   70  59  68 CALM      30.07F
WALKER         FAIR      75  56  50 NE6       30.07S
$$
MNZ012-019>021-037-282300-
   Northeast Minnesota

CITY           SKY/WX    TMP DP  RH WIND       PRES   REMARKS
DULUTH         CLOUDY    69  50  50 E16       30.08F
ELY            SUNNY     75  46  35 CALM      30.07F
HIBBING        MOSUNNY   74  55  51 N6        30.06F
EVELETH        SUNNY     74  49  41 CALM      30.08S
DULUTH HARBOR  CLOUDY    66  61  82 NE16      30.08F
TWO HARBORS    CLOUDY    72  57  60 E10       30.07F
SILVER BAY     CLOUDY    70  52  52 E8        30.08S
GRAND MARAIS     N/A     66  56  70 E5        30.09S
$$
MNZ029>031-032-039>041-046>048-054>057-064-282300-
   West Central Minnesota

CITY           SKY/WX    TMP DP  RH WIND       PRES   REMARKS
FERGUS FALLS   PTSUNNY   75  63  64 N5        30.07S
WHEATON        SUNNY     81  63  54 NE3       30.07F
MORRIS         MOSUNNY   79  57  47 NW5       30.06F
ALEXANDRIA     PTSUNNY   75  57  53 E6        30.08S
ELBOW LAKE     PTSUNNY   76  60  57 CALM      30.06F
WADENA         MOSUNNY   75  59  57 E8        30.06S
GLENWOOD       MOSUNNY   75  57  53 N8        30.07S
APPLETON       CLOUDY    79  55  44 NE8       30.05F
BENSON         MOSUNNY   77  54  44 E8        30.06S
ORTONVILLE     SUNNY     77  57  50 CALM      30.06S
MADISON        MOSUNNY   75  57  53 NE6       30.06S
WILLMAR        FAIR      75  57  53 NE8       30.07S
$$
MNZ033>034-036-042>043-049>051-058-059-282300-
   Central Minnesota

CITY           SKY/WX    TMP DP  RH WIND       PRES   REMARKS
ST CLOUD       PTSUNNY   75  56  51 NE9G17    30.04F
SAUK CENTRE    FAIR      74  56  53 N5        30.07R
PAYNESVILLE    CLOUDY    74  56  53 NE10      30.06S
AITKIN         CLOUDY    79  54  41 CALM      30.05F
PINE RIVER     SUNNY     75  57  53 N8        30.09F
BRAINERD       CLOUDY    75  57  53 CALM      30.06F
STAPLES        CLOUDY    75  55  50 CALM      30.06F
LONG PRAIRIE   FAIR      72  54  53 N5        30.07S
LITTLE FALLS   CLOUDY    72  54  53 CALM      30.06F
LITCHFIELD     MOSUNNY   75  61  60 NE10      30.05S
BUFFALO        MOSUNNY   75  54  48 N9        30.04S
MAPLE LAKE     MOSUNNY   76  60  59 N8        30.05S
HUTCHINSON     MOSUNNY   77  61  58 N15       30.04S
$$
MNZ037-044-045-052-053-282300-
   East Central Minnesota

CITY           SKY/WX    TMP DP  RH WIND       PRES   REMARKS
PRINCETON      MOSUNNY   75  57  53 N12G20    30.04S
MORA           PTSUNNY   72  52  49 NE6       30.06F
CAMBRIDGE      PTSUNNY   75  57  53 N7        30.01F
RUSH CITY      CLOUDY    72  57  58 N7        30.04S
MOOSE LAKE     MOSUNNY   68  52  56 E6        30.06S
HINCKLEY       FAIR      72  55  56 NE12      30.06S
CLOQUET        CLOUDY    70  52  52 E14       30.08S
MCGREGOR       CLOUDY    73  57  56 E8        30.07S
$$
MNZ071>073-080-081-089-090-097-098-282300-
   Southwest Minnesota

CITY           SKY/WX    TMP DP  RH WIND       PRES   REMARKS
MONTEVIDEO     SUNNY     79  57  47 E13       30.07S
GRANITE FALLS  MOSUNNY   78  57  49 N9        30.06S
CANBY          MOSUNNY   77  56  48 NE6       30.07S
MARSHALL       PTSUNNY   76  60  57 NE12      30.05
REDWOOD FALLS  MOSUNNY   77  58  51 NE6       30.03S
OLIVIA         MOSUNNY   75  59  57 N10       30.04S
PIPESTONE      MOSUNNY   75  57  53 N8        30.05F
WINDOM         MOSUNNY   75  61  60 N10       30.03F
WORTHINGTON    SUNNY     75  62  64 NE12      30.03F
JACKSON        MOSUNNY   73  59  60 N8        30.03F
TRACY          SUNNY     76  62  60 N13       30.05F
SLAYTON        MOSUNNY   73  61  65 N10       30.05F
$$
MNZ065>067-074>077-082>085-091>093-282300-
   South Central Minnesota

CITY           SKY/WX    TMP DP  RH WIND       PRES   REMARKS
MANKATO        MOSUNNY   73  61  64 N9        30.02S
NEW ULM        MOSUNNY   73  61  64 NE12      30.02S
ST JAMES       MOSUNNY   72  61  68 N7        30.02F
FAIRMONT       PTSUNNY   73  63  68 N13       30.01S
GLENCOE        CLOUDY    76  63  64 N7        30.03R
FARIBAULT      PTSUNNY   72  63  73 N9        30.01S
OWATONNA       RAIN      70  64  83 NE9       30.01S
WASECA         LGT RAIN  68  63  83 N12       30.02S
ALBERT LEA     CLOUDY    72  64  78 N14       30.00S
$$
MNZ078>079-086>088-094>096-282300-
   Southeast Minnesota

CITY           SKY/WX    TMP DP  RH WIND       PRES   REMARKS
ROCHESTER      CLOUDY    69  64  84 NE14      30.01R
RED WING       CLOUDY    73  63  68 CALM      29.98F
STANTON        CLOUDY    72  63  73 N9        29.99S
DODGE CENTER   CLOUDY   N/A N/A N/A NE9G17    30.01R
WINONA         CLOUDY    70  61  73 NE8       29.98S
AUSTIN         PTSUNNY   70  64  83 NE10G17   29.99R
PRESTON        CLOUDY    67  61  81 N8        29.99R
$$
ABBREVIATIONS USED IN REMARKS
   TC - TEMPERATURES IN CELSIUS
  WCI - WIND CHILL INDEX
   HX - HEAT INDEX
  VSB - VISIBILITY
$$




USA.gov is the U.S. government's official web portal to all federal, state and local government web resources and services.